[[{"header":{"parameterUnit":"m.s-1","parameterCategory":1,"la1":30.2991,"la2":30.254,"lo1":-89.0895,"lo2":-89.0444,"dy":0.0017,"dx":0.0017,"nx":28,"ny":28,"refTime":"2024-04-10T03:00:00:Z","depth":0,"parameterNumber":2,"parameterNumberName":"U-component_of_WINDS"},"data":[0,0,0,0,0,0,0,0,0,0,0,0,0,0,0,0,0,0,0,0,0,0,0,0,0,0,0,0,0,0,0,0,0,0,0,0,0,0,0,0,0,0,0,0,0,0,0,0,0,0,0,0,0,0,0,0,0,0,6.1126,6.1126,0,6.1069,6.1068,6.1067,6.0898,6.0894,6.0891,6.0887,6.0833,6.0835,6.0837,0,0,0,0,0,0,0,0,0,0,0,0,0,6.1094,6.1096,6.1126,6.1126,6.1125,6.1069,6.1068,6.1067,6.0899,6.0894,6.089,6.0886,6.0832,6.0835,6.0837,0,0,0,0,0,0,0,0,0,0,0,0,0,6.108,6.1096,6.1126,6.1034,6.1025,6.1069,6.1068,6.1067,6.09,6.0894,6.0889,6.0883,6.0832,6.0834,6.0837,6.0968,0,0,6.0847,6.0848,0,0,0,0,0,0,0,0,6.1081,6.1081,6.1048,6.104,6.1031,6.0985,6.1037,6.1034,6.0901,6.0948,6.0887,6.0881,6.0888,6.0886,6.0888,6.0965,6.0963,6.0847,6.0849,6.085,6.0851,0,0,0,0,0,0,0,6.1082,6.1083,6.1103,6.1048,6.1037,6.0997,6.0988,6.1035,6.095,6.0943,6.0931,6.0926,6.0882,6.0885,6.0885,6.0962,6.0847,6.085,6.0851,6.0853,6.1142,6.1148,0,0,0,0,0,0,6.1096,6.1085,6.1105,6.1102,6.1042,6.1002,6.0992,6.1005,6.0949,6.0935,6.0931,6.0918,6.0883,6.0882,6.0883,6.103,6.085,6.0853,6.0855,6.1136,6.1143,6.115,0,0,0,0,0,0,6.1096,6.1099,6.1108,6.109,6.1088,6.1008,6.1024,6.1007,6.101,6.094,6.0924,6.0949,6.0879,6.0879,6.0947,6.1026,6.0854,6.0857,6.1129,6.1139,6.1147,6.1328,0,0,0,0,0,0,6.1096,6.11,6.1148,6.1092,6.1089,6.1172,6.1029,6.101,6.1015,6.0998,6.0953,6.094,6.0874,6.0944,6.095,6.1027,6.0859,6.1122,6.1133,6.1144,6.1314,6.1341,6.1365,0,0,0,0,0,6.1095,6.1202,6.1151,6.1155,6.1147,6.1177,6.1176,6.1097,6.1022,6.1069,6.1025,6.0941,6.1017,6.0952,6.0958,6.1037,6.1117,6.113,6.1143,6.1303,6.1336,6.1364,0,0,0,0,0,0,6.1271,6.1193,6.1136,6.1228,6.121,6.1149,6.1206,6.1135,6.1139,6.1123,6.1026,6.1017,6.11,6.1075,6.1005,6.116,6.1053,6.1068,6.1172,6.1203,6.1228,6.1232,6.0862,0,0,0,0,0,6.1321,6.135,6.1281,6.1369,6.1363,6.1287,6.1297,6.1237,6.1216,6.1208,6.1168,6.1152,6.1171,6.1186,6.12,6.131,6.1298,6.1368,6.1393,6.1414,6.1428,6.1484,6.1514,6.1193,6.1193,6.1193,0,0,6.1424,6.1385,6.1409,6.1404,6.1383,6.1417,6.1282,6.1323,6.1348,6.1215,6.1276,6.1247,6.1222,6.1312,6.1349,6.1294,6.1514,6.1431,6.1448,6.1451,6.15,6.1531,6.1558,6.1202,6.1201,6.1199,0,0,6.1627,6.1601,6.1671,6.1653,6.1622,6.1571,6.1588,6.1537,6.1511,6.1571,6.1472,6.1501,6.1537,6.1523,6.1521,6.172,6.1643,6.1728,6.1859,6.1915,6.194,6.1962,6.2032,6.2058,6.1742,6.1742,6.1743,0,6.1759,6.1804,6.1716,6.1764,6.1764,6.1644,6.1714,6.1702,6.1679,6.1683,6.1621,6.1663,6.1638,6.1722,6.1771,6.1773,6.179,6.1731,6.1943,6.1964,6.1983,6.2049,6.2076,6.1753,6.1751,6.175,6.1749,0,6.1967,6.2,6.2061,6.2039,6.2047,6.2106,6.2028,6.2047,6.1987,6.1943,6.2005,6.1971,6.1976,6.1992,6.1935,6.2069,6.2035,6.196,6.185,6.2026,6.2086,6.211,6.1767,6.1764,6.1761,6.1758,0,0,6.228,6.2208,6.2232,6.222,6.2178,6.2202,6.2257,6.226,6.2277,6.2266,6.2309,6.2343,6.2272,6.227,6.2211,6.226,6.2418,6.2178,6.2176,6.2223,6.2563,6.2619,6.2649,6.2368,6.2373,6.2376,6.2564,0,6.2471,6.2557,6.248,6.2581,6.261,6.2497,6.2544,6.2524,6.2485,6.2505,6.2462,6.2486,6.2393,6.239,6.2434,6.239,6.2485,6.2376,6.2407,6.241,6.2415,6.268,6.2739,6.2919,6.2588,6.2592,6.2594,0,6.2706,6.2703,6.2807,6.2757,6.2766,6.281,6.2806,6.2827,6.2803,6.277,6.2768,6.2695,6.2745,6.264,6.2708,6.2635,6.2644,6.2625,6.263,6.2629,6.2512,6.2685,6.2974,6.3001,6.2631,6.2628,6.2625,0,6.2921,6.2944,6.3008,6.3002,6.2946,6.2979,6.2958,6.2928,6.2935,6.2933,6.2936,6.2941,6.2944,6.295,6.288,6.281,6.2958,6.2846,6.2933,6.2935,6.2967,6.2966,6.326,6.2977,6.2976,6.2976,6.2975,0,6.3142,6.321,6.3104,6.3144,6.3217,6.3128,6.3203,6.317,6.3145,6.3177,6.3081,6.3114,6.302,6.3044,6.299,6.3055,6.3058,6.3033,6.3018,6.3041,6.3044,6.3044,6.3029,6.2983,6.2981,6.298,6.2979,0,6.3395,6.3326,6.3389,6.3331,6.3318,6.3374,6.3324,6.3359,6.3313,6.3356,6.3361,6.3289,6.3312,6.3243,6.3256,6.322,6.3314,6.3279,6.3321,6.331,6.34,6.3392,6.3703,6.3739,6.3435,6.3438,6.344,0,6.3539,6.3588,6.3534,6.3548,6.3531,6.3555,6.3561,6.3476,6.3487,6.3463,6.3501,6.3515,6.3522,6.3564,6.3514,6.3523,6.3487,6.3595,6.3487,6.3509,6.3487,6.3484,6.3488,6.3617,6.3621,6.3624,6.3627,0,6.3802,6.3766,6.3777,6.3777,6.3786,6.3782,6.3772,6.3789,6.3698,6.3715,6.3736,6.3741,6.3753,6.3769,6.3767,6.3746,6.3672,6.3661,6.3681,6.3704,6.3726,6.3714,6.3381,6.3654,6.3651,6.3649,6.3648,6.3647,6.4003,6.4041,6.4009,6.4025,6.4008,6.4,6.403,6.3987,6.4002,6.4004,6.3954,6.3985,6.396,6.395,6.3937,6.3961,6.3911,6.3941,6.3948,6.3956,6.397,6.3724,6.3961,6.396,6.3959,6.3958,6.3958,0,6.426,6.4234,6.4249,6.4236,6.4249,6.4177,6.4162,6.4178,6.4205,6.4187,6.4195,6.422,6.4235,6.4186,6.4194,6.4223,6.4189,6.4228,6.4224,6.422,6.4015,6.3996,6.4255,6.4255,6.4255,6.4255,6.4255,6.4255,6.4395,6.4454,6.4415,6.4466,6.4439,6.4467,6.4464,6.4458,6.4442,6.4473,6.4484,6.4452,6.4422,6.4427,6.4438,6.4423,6.443,6.4481,6.4455,6.4264,6.4235,6.4207,6.4188,6.4483,6.4484,6.4657,6.4659,6.466]},{"header":{"parameterUnit":"m.s-1","parameterCategory":1,"la1":30.2991,"la2":30.254,"lo1":-89.0895,"lo2":-89.0444,"dy":0.0017,"dx":0.0017,"nx":28,"ny":28,"refTime":"2024-04-10T03:00:00:Z","depth":0,"parameterNumber":3,"parameterNumberName":"V-component_of_WINDS"},"data":[0,0,0,0,0,0,0,0,0,0,0,0,0,0,0,0,0,0,0,0,0,0,0,0,0,0,0,0,0,0,0,0,0,0,0,0,0,0,0,0,0,0,0,0,0,0,0,0,0,0,0,0,0,0,0,0,0,0,3.5905,3.5907,0,3.6096,3.6098,3.61,3.6146,3.6145,3.6144,3.6142,3.6341,3.6347,3.6353,0,0,0,0,0,0,0,0,0,0,0,0,0,3.5585,3.5591,3.5905,3.5908,3.591,3.6095,3.6098,3.6101,3.6146,3.6145,3.6143,3.6142,3.6339,3.6346,3.6354,0,0,0,0,0,0,0,0,0,0,0,0,0,3.5745,3.5593,3.5905,3.5955,3.5961,3.6095,3.6098,3.6101,3.6147,3.6145,3.6143,3.6141,3.6336,3.6346,3.6355,3.6453,0,0,3.6385,3.6389,0,0,0,0,0,0,0,0,3.5736,3.5757,3.5945,3.5952,3.5959,3.6095,3.6058,3.6219,3.6147,3.6077,3.6142,3.614,3.6261,3.6277,3.6317,3.6462,3.6471,3.6386,3.6392,3.6396,3.6398,0,0,0,0,0,0,0,3.5725,3.5749,3.5981,3.5948,3.5957,3.5969,3.599,3.6089,3.6177,3.6083,3.6086,3.6108,3.6264,3.6307,3.6322,3.6474,3.6385,3.6394,3.64,3.6404,3.6711,3.6713,0,0,0,0,0,0,3.5704,3.5739,3.5975,3.5986,3.584,3.5977,3.6,3.6054,3.6176,3.6193,3.6109,3.6109,3.6292,3.631,3.6329,3.6452,3.6396,3.6405,3.641,3.6709,3.6712,3.6714,0,0,0,0,0,0,3.5697,3.5725,3.5967,3.5864,3.5896,3.5984,3.6044,3.6058,3.6101,3.6196,3.6213,3.6137,3.6291,3.6315,3.6422,3.646,3.6409,3.6418,3.6706,3.671,3.6713,3.6699,0,0,0,0,0,0,3.5688,3.5722,3.5759,3.5864,3.5901,3.6056,3.6047,3.6063,3.6117,3.6119,3.6226,3.6242,3.6291,3.6407,3.6432,3.6472,3.6425,3.6703,3.6708,3.6712,3.6697,3.6702,3.6707,0,0,0,0,0,3.5676,3.5748,3.5761,3.5789,3.5949,3.6058,3.6079,3.6132,3.612,3.6159,3.622,3.6239,3.6452,3.6418,3.6446,3.649,3.6701,3.6706,3.6711,3.6695,3.6701,3.6706,0,0,0,0,0,0,3.5646,3.5763,3.5778,3.5886,3.5961,3.6065,3.6116,3.6137,3.6219,3.6217,3.6281,3.6305,3.6408,3.646,3.642,3.6592,3.6576,3.6587,3.6554,3.6561,3.6566,3.6551,3.6433,0,0,0,0,0,3.5652,3.5729,3.5827,3.5913,3.595,3.6026,3.6076,3.611,3.6192,3.6224,3.6293,3.6373,3.6458,3.6512,3.6595,3.6705,3.673,3.6749,3.6754,3.6757,3.6766,3.6829,3.6839,3.6732,3.6731,3.6731,0,0,3.5665,3.5738,3.5783,3.5909,3.5972,3.6051,3.6053,3.6137,3.6198,3.6237,3.6342,3.6396,3.6489,3.6597,3.6649,3.6644,3.6802,3.6764,3.6766,3.6773,3.6836,3.6846,3.6855,3.6735,3.6734,3.6734,0,0,3.5729,3.5792,3.587,3.5933,3.6028,3.6078,3.6097,3.6198,3.6235,3.6341,3.6373,3.6446,3.6591,3.6656,3.6708,3.6798,3.6819,3.6823,3.6848,3.6909,3.6918,3.6925,3.6959,3.6969,3.6832,3.6832,3.6832,0,3.5733,3.5853,3.5908,3.5991,3.6046,3.6085,3.6167,3.6225,3.6342,3.638,3.6373,3.6555,3.6621,3.6746,3.6767,3.6808,3.6833,3.6811,3.6912,3.692,3.6928,3.6961,3.6973,3.6832,3.6832,3.6832,3.6832,0,3.5855,3.5938,3.599,3.6102,3.6163,3.6244,3.6313,3.6368,3.6398,3.645,3.6558,3.6638,3.6738,3.6771,3.6801,3.6901,3.6895,3.6899,3.6884,3.6938,3.6969,3.6982,3.6832,3.6832,3.6832,3.6832,0,0,3.5905,3.6045,3.6064,3.6115,3.6223,3.6289,3.6373,3.6471,3.6518,3.6598,3.6671,3.6792,3.6797,3.6856,3.6894,3.6947,3.7015,3.6945,3.6948,3.6956,3.7131,3.7128,3.7141,3.7029,3.7032,3.7034,3.7124,0,3.5982,3.6132,3.6185,3.6309,3.6388,3.6427,3.65,3.6575,3.6626,3.6701,3.6758,3.6843,3.6842,3.6878,3.6932,3.6995,3.7051,3.6989,3.7099,3.7102,3.7075,3.7157,3.7154,3.7235,3.7136,3.7138,3.714,0,3.6093,3.6174,3.6305,3.6404,3.6439,3.6504,3.6598,3.6669,3.6756,3.6789,3.6855,3.689,3.6981,3.6961,3.7089,3.7045,3.7094,3.7131,3.7136,3.7148,3.7124,3.7173,3.7262,3.7274,3.716,3.7158,3.7157,0,3.6117,3.6258,3.6356,3.6399,3.6516,3.6561,3.6613,3.6697,3.6753,3.6836,3.6873,3.6965,3.7016,3.7088,3.7148,3.7127,3.727,3.7255,3.7302,3.73,3.733,3.7327,3.7428,3.736,3.736,3.736,3.7359,0,3.6198,3.6277,3.6368,3.6428,3.6519,3.6579,3.6668,3.6722,3.6797,3.6869,3.6909,3.6977,3.7051,3.7129,3.7176,3.7275,3.7297,3.7328,3.734,3.7325,3.7321,3.7357,3.7353,3.7363,3.7362,3.7362,3.7361,0,3.6239,3.6303,3.6412,3.6515,3.6543,3.6605,3.6694,3.6754,3.6807,3.6898,3.6923,3.7007,3.71,3.7167,3.7287,3.7319,3.7426,3.7437,3.7396,3.7402,3.7445,3.7441,3.7574,3.7595,3.7512,3.7512,3.7513,0,3.6287,3.6349,3.6458,3.6509,3.656,3.6641,3.6698,3.6761,3.6819,3.6923,3.6971,3.7067,3.7147,3.7296,3.7368,3.7461,3.7475,3.7515,3.7489,3.7472,3.7476,3.7472,3.7479,3.7519,3.7519,3.752,3.752,0,3.6365,3.6394,3.6474,3.6565,3.6632,3.6707,3.6783,3.6823,3.6899,3.6963,3.7058,3.712,3.7244,3.7339,3.7439,3.7494,3.7521,3.7528,3.7544,3.7529,3.7503,3.7519,3.7407,3.7525,3.7524,3.7524,3.7524,3.7524,3.6412,3.6469,3.6555,3.6643,3.6707,3.6777,3.6839,3.69,3.698,3.7084,3.7117,3.7217,3.7304,3.7441,3.7497,3.7577,3.7575,3.7598,3.7604,3.7608,3.7608,3.749,3.7595,3.7595,3.7595,3.7595,3.7595,0,3.6492,3.655,3.663,3.6735,3.6804,3.6822,3.6908,3.6965,3.7052,3.713,3.7208,3.7319,3.7412,3.7492,3.7589,3.7638,3.7653,3.7662,3.7659,3.7671,3.7604,3.7581,3.7648,3.7648,3.7648,3.7648,3.7648,3.7648,3.6542,3.664,3.668,3.681,3.6868,3.6965,3.7012,3.7078,3.7141,3.7262,3.7339,3.7391,3.747,3.7574,3.7661,3.7682,3.7716,3.7722,3.7746,3.7682,3.7676,3.767,3.7648,3.7729,3.7729,3.7807,3.7808,3.7808]}]]